Zurück zum Katalog

CZ-4C DEB

AktivLEO
NORAD 43418·DEBRIS·🇨🇳 China

Gestartet Dec 10, 2014 von Jiuquan Satellite Launch Center

Loading…

Nächste Überflüge (nächste 24 Stunden)

TLE

VeraltetSource: Space-Track

Epoche: Aug 15, 2026, 06:52 UTC

1 43418U 14080G   26227.28627778  .00000044  00000-0  14468-3 0  9993
2 43418  63.3900 170.2355 0386342   9.4088 351.3911 13.45321779552974

Verfolge CZ-4C DEB in Echtzeit mit AllMySat

Download on the App Store